Regional Weather Roundup
Issued by NWS

Home | Current Version | Previous Version | Text Only | Print | Product List | Glossary Off
Versions: 1 2 3 4 5 6 7 8 9 10 11 12 13 14 15 16 17 18 19 20 21 22 23 24 25 26 27 28 29 30 31 32 33 34 35 36 37 38 39 40 41 42 43 44 45 46 47 48 49 50

809
ASUS43 KBIS 141410
RWRND

NORTH DAKOTA REGIONAL WEATHER ROUNDUP
NATIONAL WEATHER SERVICE BISMARCK ND
800 AM CST THU DEC 14 2017

NOTE: "FAIR" INDICATES FEW OR NO CLOUDS BELOW 12,000 FEET WITH NO
SIGNIFICANT WEATHER AND/OR OBSTRUCTIONS TO VISIBILITY.


NDZ001>003-009>011-017-141500-
NORTHWEST NORTH DAKOTA

CITY           SKY/WX    TMP DP  RH WIND       PRES   REMARKS
WILLISTON      CLOUDY    33  25  72 N12       30.19R
MINOT          CLOUDY    32  24  72 NW13      30.07R
MINOT AFB      CLOUDY    31  24  75 N13       30.07R
$$

NDZ018>021-031>035-040>046-141500-
SOUTHWEST NORTH DAKOTA

CITY           SKY/WX    TMP DP  RH WIND       PRES   REMARKS
BISMARCK       CLOUDY    34  30  85 N17G23    30.04R
DICKINSON      LGT SNOW  31  28  89 NW18      30.08R FOG     WCI  19
GARRISON         N/A     32  28  85 N21       30.06R WCI  20
HETTINGER ARPT CLOUDY    32  26  78 NW25G33   30.09R WCI  19
$$

NDZ004>008-012>016-024-026-027-054-141500-
NORTHEAST NORTH DAKOTA

CITY           SKY/WX    TMP DP  RH WIND       PRES   REMARKS
GRAND FORKS    CLOUDY    22  19  89 NW8       30.03R WCI  12
GRND FRKS AFB  FLURRIES  23  18  80 N8        30.02S WCI  14
DEVILS LAKE    CLOUDY    22  21  96 N9        30.03R WCI  12
$$

NDZ022-023-025-028>030-036>039-047>053-141500-
SOUTHEAST NORTH DAKOTA

CITY           SKY/WX    TMP DP  RH WIND       PRES   REMARKS
FARGO          CLOUDY    20  17  88 W5        30.02R WCI  13
JAMESTOWN      CLOUDY    27  26  96 CALM      29.97S
$$





USA.gov is the U.S. government's official web portal to all federal, state and local government web resources and services.